Cairns, Queensland

4:12 AM AEST on July 28, 2016 (GMT +1000)
Cairns International

Weather History for YBCS - March, 2013

Change the Weather History Date:

Tuesday, March 26, 2013

  Actual Average Record
Temperature  
Mean Temperature 81 °F -  
Max Temperature 86 °F 84 °F 89 °F (2001)
Min Temperature 76 °F 71 °F 69 °F (1998)
Cooling Degree Days 16    
Growing Degree Days 31 (Base 50)    
Moisture  
Dew Point 72 °F    
Average Humidity 76    
Maximum Humidity 89    
Minimum Humidity 54    
Precipitation  
Precipitation 0.00 in 0.33 in - ()
Sea Level Pressure  
Sea Level Pressure 29.85 in    
Wind  
Wind Speed 12 mph ()    
Max Wind Speed 23 mph    
Max Gust Speed -    
Visibility 7.2 miles    
Events Rain    
Averages and records for this station are not official NWS values.
T = Trace of Precipitation, MM = Missing Value Source: Averaged Metar Reports

Daily Weather History Graph

Daily Weather History Graph

Search for Another Location

Airport or City:

Trip Planner

Search our weather history database for the weather conditions in past years. The results will help you decide how hot, cold, wet, or windy it might be!

Date:

Astronomy

Mar. 26, 2013 Rise Set
Actual Time 6:21 AM AEST 6:23 PM AEST
Civil Twilight 6:00 AM AEST 6:44 PM AEST
Nautical Twilight 5:35 AM AEST 7:09 PM AEST
Astronomical Twilight 5:10 AM AEST 7:35 PM AEST
Moon 5:24 PM AEST (3/26) 4:58 AM AEST (3/26)
Length of Visible Light 12h 44m
Length of Day
12h 01m
Waxing Gibbous, 98% of the Moon is Illuminated
Mar 26
Waxing Gibbous
Mar 27
Full
Apr 3
Last Quarter
Apr 10
New
Apr 18
First Quarter

Hourly Weather History & Observations

Time (AEST) Temp. Heat Index Dew Point Humidity Pressure Visibility Wind Dir Wind Speed Gust Speed Precip Events Conditions
12:00 AM 78 °F - 72 °F 77% 29.89 in - South 10.4 mph - -  
12:00 AM 78.8 °F - 71.6 °F 78% 29.89 in 6.2 mi South 10.4 mph - N/A   Scattered Clouds
12:30 AM 78.8 °F - 71.6 °F 78% 29.86 in 6.2 mi SSE 12.7 mph - N/A   Scattered Clouds
1:00 AM 79 °F - 72 °F 73% 29.88 in - South 10.4 mph - -  
1:00 AM 78.8 °F - 71.6 °F 78% 29.86 in 6.2 mi South 10.4 mph - N/A   Scattered Clouds
1:30 AM 77.0 °F - 73.4 °F 89% 29.86 in 6.2 mi South 9.2 mph - N/A Rain Light Rain Showers
2:00 AM 77.0 °F - 73.4 °F 89% 29.83 in 6.2 mi South 9.2 mph - N/A   Mostly Cloudy
2:30 AM 78.8 °F - 71.6 °F 78% 29.83 in 6.2 mi South 12.7 mph - N/A   Mostly Cloudy
3:00 AM 78 °F - 72 °F 77% 29.83 in - South 13.8 mph - -  
3:00 AM 77.0 °F - 71.6 °F 83% 29.83 in 6.2 mi South 13.8 mph - N/A   Scattered Clouds
3:30 AM 77.0 °F - 71.6 °F 83% 29.80 in 6.2 mi South 11.5 mph - N/A   Scattered Clouds
4:00 AM 77 °F - 72 °F 82% 29.82 in - South 11.5 mph - -  
4:00 AM 77.0 °F - 73.4 °F 89% 29.80 in 6.2 mi South 11.5 mph - N/A   Mostly Cloudy
4:30 AM 77.0 °F - 73.4 °F 89% 29.80 in 6.2 mi South 11.5 mph - N/A   Scattered Clouds
5:00 AM 77.0 °F - 71.6 °F 83% 29.80 in 6.2 mi South 12.7 mph - N/A   Scattered Clouds
5:30 AM 77.0 °F - 71.6 °F 83% 29.83 in 6.2 mi South 12.7 mph - N/A   Scattered Clouds
6:00 AM 77 °F - 72 °F 79% 29.84 in 16 mi South 10.4 mph - -   Partly Cloudy
6:00 AM 77.0 °F - 71.6 °F 83% 29.83 in 6.2 mi South 10.4 mph - N/A   Mostly Cloudy
6:30 AM 77.0 °F - 71.6 °F 83% 29.83 in 6.2 mi South 11.5 mph - N/A   Mostly Cloudy
7:00 AM 77 °F - 72 °F 79% 29.86 in - South 11.5 mph - -  
7:00 AM 77.0 °F - 71.6 °F 83% 29.83 in 6.2 mi South 11.5 mph - N/A   Mostly Cloudy
7:30 AM 78.8 °F - 71.6 °F 78% 29.86 in 6.2 mi South 13.8 mph - N/A   Mostly Cloudy
8:00 AM 78.8 °F - 71.6 °F 78% 29.86 in 6.2 mi South 11.5 mph - N/A   Mostly Cloudy
8:30 AM 78.8 °F - 71.6 °F 78% 29.89 in 6.2 mi SSE 11.5 mph - N/A   Mostly Cloudy
9:00 AM 80 °F - 71 °F 69% 29.89 in 19 mi SSE 13.8 mph - -   Partly Cloudy
9:00 AM 80.6 °F 84.6 °F 71.6 °F 74% 29.89 in 6.2 mi SSE 13.8 mph - N/A   Mostly Cloudy
9:30 AM 80.6 °F 84.6 °F 71.6 °F 74% 29.89 in 6.2 mi South 12.7 mph - N/A   Scattered Clouds
10:00 AM 83 °F - 72 °F 62% 29.90 in - SSE 15.0 mph - -  
10:00 AM 82.4 °F 87.2 °F 71.6 °F 70% 29.89 in 6.2 mi SSE 15.0 mph - N/A   Mostly Cloudy
10:30 AM 82.4 °F 87.2 °F 71.6 °F 70% 29.89 in 6.2 mi SSE 16.1 mph - N/A   Mostly Cloudy
11:00 AM 84.2 °F 89.6 °F 71.6 °F 66% 29.89 in 6.2 mi SE 23.0 mph - N/A   Mostly Cloudy
11:30 AM 84.2 °F 89.6 °F 71.6 °F 66% 29.89 in 6.2 mi SSE 16.1 mph - N/A   Mostly Cloudy
12:00 PM 82 °F - 73 °F 69% 29.88 in - SE 23.0 mph - -   Overcast
12:00 PM 82.4 °F 88.2 °F 73.4 °F 74% 29.86 in 6.2 mi SE 23.0 mph - N/A Rain Light Rain Showers
12:30 PM 84.2 °F 90.9 °F 73.4 °F 70% 29.86 in 6.2 mi SE 21.9 mph - N/A   Mostly Cloudy
1:00 PM 86 °F - 72 °F 54% 29.86 in - SE 20.7 mph - -  
1:00 PM 86.0 °F 91.8 °F 71.6 °F 62% 29.83 in 6.2 mi SE 20.7 mph - N/A   Mostly Cloudy
1:30 PM 84.2 °F 90.9 °F 73.4 °F 70% 29.83 in 6.2 mi SE 21.9 mph - N/A   Mostly Cloudy
2:00 PM 84.2 °F 90.9 °F 73.4 °F 70% 29.83 in 6.2 mi SE 21.9 mph - N/A   Mostly Cloudy
2:30 PM 82.4 °F 88.2 °F 73.4 °F 74% 29.80 in 6.2 mi SE 19.6 mph - N/A   Mostly Cloudy
3:00 PM 85 °F - 73 °F 59% 29.81 in 16 mi SE 18.4 mph - -   Partly Cloudy
3:00 PM 86.0 °F 93.4 °F 73.4 °F 66% 29.80 in 6.2 mi SE 18.4 mph - N/A   Mostly Cloudy
3:30 PM 84.2 °F 90.9 °F 73.4 °F 70% 29.80 in 6.2 mi SE 21.9 mph - N/A   Mostly Cloudy
4:00 PM 85 °F - 72 °F 56% 29.82 in - SE 19.6 mph - -  
4:00 PM 84.2 °F 89.6 °F 71.6 °F 66% 29.80 in 6.2 mi SE 19.6 mph - N/A   Scattered Clouds
4:30 PM 82.4 °F 87.2 °F 71.6 °F 70% 29.80 in 6.2 mi SE 17.3 mph - N/A   Mostly Cloudy
5:00 PM 84.2 °F 90.9 °F 73.4 °F 70% 29.80 in 6.2 mi SE 16.1 mph - N/A   Mostly Cloudy
5:30 PM 82.4 °F 88.2 °F 73.4 °F 74% 29.83 in 6.2 mi SE 16.1 mph - N/A   Mostly Cloudy
6:00 PM 82 °F - 72 °F 64% 29.83 in 16 mi SE 18.4 mph - -   Partly Cloudy
6:00 PM 82.4 °F 87.2 °F 71.6 °F 70% 29.83 in 6.2 mi SE 18.4 mph - N/A   Mostly Cloudy
6:30 PM 80.6 °F 84.6 °F 71.6 °F 74% 29.83 in 6.2 mi SE 15.0 mph - N/A   Mostly Cloudy
7:00 PM 80 °F - 72 °F 72% 29.87 in - SSE 12.7 mph - -  
7:00 PM 80.6 °F 85.4 °F 73.4 °F 79% 29.86 in 6.2 mi SSE 12.7 mph - N/A   Scattered Clouds
7:30 PM 80.6 °F 85.4 °F 73.4 °F 79% 29.86 in 6.2 mi SSE 11.5 mph - N/A   Scattered Clouds
8:00 PM 78.8 °F - 73.4 °F 83% 29.89 in 6.2 mi South 8.1 mph - N/A   Scattered Clouds
8:30 PM 78.8 °F - 73.4 °F 83% 29.89 in 6.2 mi SSE 9.2 mph - N/A   Scattered Clouds
9:00 PM 78 °F - 73 °F 80% 29.90 in 16 mi South 9.2 mph - -   Mostly Cloudy
9:00 PM 78.8 °F - 73.4 °F 83% 29.89 in 6.2 mi South 9.2 mph - N/A   Scattered Clouds
9:30 PM 78.8 °F - 73.4 °F 83% 29.89 in 6.2 mi South 8.1 mph - N/A   Scattered Clouds
10:00 PM 78 °F - 73 °F 80% 29.91 in - South 8.1 mph - -  
10:00 PM 78.8 °F - 73.4 °F 83% 29.89 in 6.2 mi South 8.1 mph - N/A   Scattered Clouds
10:30 PM 77.0 °F - 73.4 °F 89% 29.89 in 6.2 mi SSE 9.2 mph - N/A   Scattered Clouds
11:00 PM 78.8 °F - 73.4 °F 83% 29.89 in 6.2 mi South 11.5 mph - N/A   Mostly Cloudy
11:30 PM 78.8 °F - 73.4 °F 83% 29.89 in 6.2 mi South 9.2 mph - N/A   Mostly Cloudy